Location: New Town
(33.2710°N, 90.7534°W)
Time: 09:26:48
(UTC+00:00)

X-37B - Visible Passes

Search period start: 17 April 2021 00:00
Search period end: 27 April 2021 00:00
Orbit: 380 x 394 km, 45.0° (Epoch: 07 April)

Date Brightness Start Highest point End Pass type
(mag) Time Alt. Az. Time Alt. Az. Time Alt. Az.
17 Apr 4.2 08:49:12 11° NE 08:49:12 11° NE 08:49:16 10° NE visible
17 Apr 3.0 10:21:28 11° NW 10:23:08 15° NNW 10:25:08 10° NNE visible
18 Apr 3.0 09:25:33 19° N 09:25:33 19° N 09:27:07 10° NNE visible
18 Apr 3.5 11:01:30 10° NNW 11:02:01 10° N 11:02:32 10° N visible
19 Apr 3.3 10:01:59 10° NW 10:03:18 12° N 10:04:37 10° NNE visible
20 Apr 3.7 09:05:56 13° N 09:05:56 13° N 09:06:39 10° NNE visible
20 Apr 3.7 10:42:03 10° N 10:42:15 10° N 10:42:28 10° N visible
21 Apr 3.6 09:42:58 10° NNW 09:43:32 10° N 09:44:06 10° N visible
22 Apr 3.6 10:21:27 10° N 10:22:30 11° N 10:23:33 10° NNE visible
23 Apr 3.7 09:23:25 10° N 09:23:46 10° N 09:24:08 10° N visible
24 Apr 3.5 10:00:54 10° NNW 10:02:42 14° NNE 10:04:29 10° NE visible
25 Apr 3.7 09:03:23 11° N 09:04:01 11° N 09:05:07 10° NNE visible
25 Apr 2.5 10:38:30 10° NW 10:41:23 30° NNE 10:44:14 10° E visible
26 Apr 3.2 09:40:25 10° NNW 09:42:51 19° NNE 09:45:14 10° ENE visible
